Location: Maccacari
(45.1333°N, 11.1333°E)
Time: 01:52:41
(UTC+00:00)

A-11 Canister half - Pass Details

Date: 24 January 2021
Orbit: 1525 x 1684 km, 47.3° (Epoch: 07 March)

Event Time Altitude Azimuth Distance (km) Brightness Sun altitude
Rises 14:26:11 0° 241° (WSW) 4,670 13.1 14.1°
Reaches altitude 10° 14:29:11 10° 240° (WSW) 3,696 12.9 13.7°
Maximum altitude 14:38:31 79° 155° (SSE) 1,584 9.4 12.5°
Drops below altitude 10° 14:48:08 10° 72° (ENE) 3,805 10.6 11.3°
Sets 14:51:16 0° 71° (ENE) 4,813 11.0 10.9°
